SIA438 WSSS-VRMM

Flight info

Callsign SIA438
Flight time 3h 55m
Altitude 40000
Route MIBEL1B MIBEL L762 MOZES M300 OKABU P756 TENIV
Aircraft A359/H-SDE1E2E3GHIJ1J2J3J5M1P2RWXYZ/LB1D1

Departure

Time 2026-05-07 16:11
Airport Singapore Changi Airport (WSSS)

Arrival

Time 2026-05-07 20:07
Airport Velana International Airport (VRMM)
Time Latitude Longitude Altitude Speed Heading
2026-05-07 15:32 1.35230 103.98913 37 ft 0 kts 293°
2026-05-07 15:32 1.35166 103.98876 37 ft 0 kts 294°
2026-05-07 15:57 1.35165 103.98877 36 ft 1 kts 294°
2026-05-07 15:57 1.35156 103.98899 37 ft 4 kts 293°
2026-05-07 15:58 1.35146 103.98921 37 ft 4 kts 289°
2026-05-07 15:58 1.35146 103.98942 36 ft 4 kts 221°
2026-05-07 15:58 1.35168 103.98954 37 ft 4 kts 196°
2026-05-07 15:58 1.35180 103.98957 37 ft 1 kts 195°
2026-05-07 15:59 1.35181 103.98958 37 ft 0 kts 195°
2026-05-07 16:03 1.35165 103.98954 37 ft 7 kts 194°
2026-05-07 16:04 1.35146 103.98949 37 ft 0 kts 193°
2026-05-07 16:04 1.35124 103.98944 37 ft 0 kts 189°
2026-05-07 16:04 1.35121 103.98944 37 ft 0 kts 189°
2026-05-07 16:05 1.35112 103.98944 37 ft 5 kts 177°
2026-05-07 16:05 1.35044 103.98957 37 ft 14 kts 169°
2026-05-07 16:06 1.34946 103.98975 37 ft 15 kts 165°
2026-05-07 16:06 1.34862 103.99040 37 ft 16 kts 119°
2026-05-07 16:06 1.34866 103.99131 37 ft 13 kts 44°
2026-05-07 16:06 1.34953 103.99177 37 ft 16 kts 22°
2026-05-07 16:07 1.35069 103.99225 37 ft 19 kts 22°
2026-05-07 16:07 1.35196 103.99278 37 ft 20 kts 22°
2026-05-07 16:07 1.35332 103.99334 37 ft 22 kts 22°
2026-05-07 16:07 1.35472 103.99393 37 ft 21 kts 23°
2026-05-07 16:08 1.35614 103.99454 36 ft 23 kts 23°
2026-05-07 16:08 1.35763 103.99517 36 ft 24 kts 23°
2026-05-07 16:08 1.35920 103.99583 36 ft 25 kts 22°
2026-05-07 16:08 1.36073 103.99648 36 ft 24 kts 23°
2026-05-07 16:09 1.36209 103.99706 36 ft 13 kts 23°
2026-05-07 16:09 1.36237 103.99776 36 ft 12 kts 99°
2026-05-07 16:09 1.36206 103.99857 36 ft 12 kts 117°
2026-05-07 16:09 1.36144 103.99876 36 ft 9 kts 197°
2026-05-07 16:10 1.36124 103.99867 36 ft 0 kts 202°
2026-05-07 16:10 1.36116 103.99864 36 ft 9 kts 202°
2026-05-07 16:10 1.35844 103.99750 37 ft 77 kts 202°
2026-05-07 16:10 1.35154 103.99458 37 ft 137 kts 202°
2026-05-07 16:11 1.34145 103.99028 133 ft 178 kts 202°
2026-05-07 16:11 1.33027 103.98540 879 ft 171 kts 202°
2026-05-07 16:11 1.31930 103.98070 1514 ft 177 kts 201°
2026-05-07 16:11 1.30733 103.97576 1706 ft 198 kts 201°
2026-05-07 16:12 1.29363 103.97015 1838 ft 223 kts 201°
2026-05-07 16:12 1.27857 103.96403 2053 ft 244 kts 201°
2026-05-07 16:12 1.26218 103.95737 2329 ft 262 kts 201°
2026-05-07 16:12 1.24522 103.95039 2948 ft 262 kts 201°
2026-05-07 16:13 1.22862 103.94342 3616 ft 264 kts 201°
2026-05-07 16:13 1.21169 103.93596 4183 ft 267 kts 202°
2026-05-07 16:13 1.19470 103.92825 4812 ft 269 kts 203°
2026-05-07 16:13 1.17762 103.92050 5415 ft 271 kts 203°
2026-05-07 16:14 1.16032 103.91271 5978 ft 275 kts 203°
2026-05-07 16:14 1.14281 103.90489 6553 ft 276 kts 202°
2026-05-07 16:14 1.12513 103.89702 7106 ft 278 kts 203°
2026-05-07 16:14 1.10732 103.88909 7622 ft 282 kts 203°
2026-05-07 16:15 1.08933 103.88111 8134 ft 285 kts 203°
2026-05-07 16:15 1.07111 103.87306 8654 ft 287 kts 203°
2026-05-07 16:15 1.05276 103.86494 9185 ft 290 kts 203°
2026-05-07 16:15 1.03426 103.85673 9686 ft 293 kts 203°
2026-05-07 16:16 1.01553 103.84842 10183 ft 296 kts 203°
2026-05-07 16:16 0.99652 103.84001 10551 ft 304 kts 203°
2026-05-07 16:16 0.97685 103.83129 10795 ft 315 kts 203°
2026-05-07 16:16 0.95643 103.82219 11010 ft 328 kts 205°
2026-05-07 16:17 0.93670 103.80996 11174 ft 341 kts 219°
2026-05-07 16:17 0.92105 103.79176 11315 ft 353 kts 240°
2026-05-07 16:17 0.91350 103.76819 11482 ft 364 kts 264°
2026-05-07 16:17 0.91566 103.74314 11631 ft 373 kts 284°
2026-05-07 16:18 0.92331 103.71810 11838 ft 380 kts 288°
2026-05-07 16:18 0.93165 103.69294 12125 ft 384 kts 288°
2026-05-07 16:18 0.93987 103.66740 12457 ft 387 kts 288°
2026-05-07 16:18 0.94793 103.64162 12791 ft 390 kts 287°
2026-05-07 16:19 0.95588 103.61566 13120 ft 392 kts 287°
2026-05-07 16:19 0.96381 103.58949 13457 ft 394 kts 287°
2026-05-07 16:19 0.97164 103.56352 13761 ft 396 kts 287°
2026-05-07 16:19 0.97957 103.53707 14075 ft 398 kts 287°
2026-05-07 16:20 0.98752 103.51049 14412 ft 400 kts 287°
2026-05-07 16:20 0.99554 103.48371 14715 ft 403 kts 287°
2026-05-07 16:20 1.00358 103.45682 15025 ft 405 kts 287°
2026-05-07 16:20 1.01166 103.42978 15344 ft 407 kts 287°
2026-05-07 16:21 1.01980 103.40256 15664 ft 409 kts 287°
2026-05-07 16:21 1.02797 103.37523 15962 ft 412 kts 287°
2026-05-07 16:21 1.03618 103.34776 16280 ft 413 kts 287°
2026-05-07 16:21 1.04443 103.32016 16563 ft 416 kts 287°
2026-05-07 16:22 1.05273 103.29238 16864 ft 418 kts 287°
2026-05-07 16:22 1.06106 103.26448 17176 ft 420 kts 287°
2026-05-07 16:22 1.06932 103.23680 17439 ft 422 kts 287°
2026-05-07 16:22 1.07774 103.20864 17733 ft 424 kts 287°
2026-05-07 16:23 1.08619 103.18036 18002 ft 426 kts 287°
2026-05-07 16:23 1.09471 103.15181 18276 ft 428 kts 287°
2026-05-07 16:23 1.10326 103.12324 18595 ft 429 kts 287°
2026-05-07 16:23 1.11182 103.09461 18856 ft 432 kts 287°
2026-05-07 16:24 1.12045 103.06571 19079 ft 435 kts 287°
2026-05-07 16:24 1.12912 103.03667 19333 ft 437 kts 287°
2026-05-07 16:24 1.13782 103.00754 19577 ft 439 kts 287°
2026-05-07 16:24 1.14659 102.97817 19822 ft 441 kts 287°
2026-05-07 16:25 1.15539 102.94871 20069 ft 443 kts 287°
2026-05-07 16:25 1.16411 102.91950 20274 ft 445 kts 287°
2026-05-07 16:25 1.17298 102.88984 20506 ft 446 kts 287°
2026-05-07 16:25 1.18187 102.86002 20738 ft 448 kts 287°
2026-05-07 16:26 1.19081 102.83010 20976 ft 450 kts 287°
2026-05-07 16:26 1.19977 102.80008 21199 ft 451 kts 287°
2026-05-07 16:26 1.20877 102.76993 21384 ft 454 kts 287°
2026-05-07 16:26 1.21475 102.74991 21524 ft 455 kts 287°
2026-05-07 16:27 1.22688 102.70932 21817 ft 457 kts 287°
2026-05-07 16:27 1.23598 102.67883 22027 ft 458 kts 287°
2026-05-07 16:27 1.24512 102.64824 22226 ft 460 kts 287°
2026-05-07 16:27 1.25429 102.61751 22422 ft 462 kts 287°
2026-05-07 16:28 1.26348 102.58667 22613 ft 464 kts 287°
2026-05-07 16:28 1.27270 102.55579 22816 ft 465 kts 287°
2026-05-07 16:28 1.28196 102.52478 23004 ft 466 kts 287°
2026-05-07 16:28 1.29113 102.49406 23171 ft 468 kts 287°
2026-05-07 16:29 1.30045 102.46286 23351 ft 469 kts 287°
2026-05-07 16:29 1.30992 102.43114 23520 ft 471 kts 287°
2026-05-07 16:29 1.31929 102.39974 23679 ft 473 kts 287°
2026-05-07 16:29 1.32860 102.36855 23852 ft 474 kts 287°
2026-05-07 16:30 1.33803 102.33693 24025 ft 475 kts 287°
2026-05-07 16:30 1.34747 102.30528 24197 ft 476 kts 287°
2026-05-07 16:30 1.35697 102.27346 24376 ft 478 kts 287°
2026-05-07 16:30 1.36648 102.24158 24547 ft 479 kts 287°
2026-05-07 16:31 1.37599 102.20969 24708 ft 480 kts 287°
2026-05-07 16:31 1.38553 102.17771 24864 ft 481 kts 287°
2026-05-07 16:31 1.39598 102.14590 25006 ft 481 kts 292°
2026-05-07 16:31 1.41032 102.11563 25164 ft 481 kts 299°
2026-05-07 16:32 1.42657 102.08633 25323 ft 482 kts 301°
2026-05-07 16:32 1.43786 102.06718 25435 ft 482 kts 302°
2026-05-07 16:32 1.46100 102.02917 25648 ft 483 kts 302°
2026-05-07 16:32 1.47861 102.00053 25841 ft 484 kts 302°
2026-05-07 16:33 1.49048 101.98112 25935 ft 485 kts 302°
2026-05-07 16:33 1.50799 101.95229 26084 ft 486 kts 302°
2026-05-07 16:33 1.52546 101.92329 26244 ft 487 kts 302°
2026-05-07 16:33 1.54289 101.89420 26389 ft 488 kts 302°
2026-05-07 16:34 1.56011 101.86536 26557 ft 489 kts 302°
2026-05-07 16:34 1.57755 101.83611 26726 ft 490 kts 302°
2026-05-07 16:34 1.59500 101.80685 26888 ft 491 kts 302°
2026-05-07 16:34 1.61255 101.77743 27026 ft 492 kts 302°
2026-05-07 16:35 1.63012 101.74797 27207 ft 493 kts 302°
2026-05-07 16:35 1.64770 101.71850 27387 ft 494 kts 302°
2026-05-07 16:35 1.66531 101.68897 27544 ft 495 kts 302°
2026-05-07 16:35 1.68298 101.65938 27710 ft 496 kts 302°
2026-05-07 16:36 1.70066 101.62975 27901 ft 496 kts 302°
2026-05-07 16:36 1.71835 101.60009 28052 ft 497 kts 302°
2026-05-07 16:36 1.73609 101.57037 28200 ft 499 kts 302°
2026-05-07 16:36 1.75387 101.54059 28360 ft 500 kts 302°
2026-05-07 16:37 1.77172 101.51067 28517 ft 501 kts 302°
2026-05-07 16:37 1.78962 101.48068 28709 ft 502 kts 302°
2026-05-07 16:37 1.80729 101.45105 28890 ft 502 kts 302°
2026-05-07 16:37 1.82519 101.42103 29035 ft 503 kts 302°
2026-05-07 16:38 1.84317 101.39088 29181 ft 505 kts 302°
2026-05-07 16:38 1.86117 101.36068 29343 ft 506 kts 302°
2026-05-07 16:38 1.87920 101.33046 29503 ft 507 kts 302°
2026-05-07 16:38 1.89725 101.30023 29666 ft 507 kts 301°
2026-05-07 16:39 1.91539 101.26983 29803 ft 508 kts 301°
2026-05-07 16:39 1.95163 101.20904 29869 ft 509 kts 301°
2026-05-07 16:40 1.98789 101.14821 29868 ft 509 kts 301°
2026-05-07 16:40 2.02414 101.08737 29868 ft 509 kts 301°
2026-05-07 16:41 2.06046 101.02647 29869 ft 510 kts 301°
2026-05-07 16:41 2.09679 100.96557 29871 ft 509 kts 301°
2026-05-07 16:42 2.13312 100.90464 29871 ft 510 kts 301°
2026-05-07 16:42 2.16915 100.84418 29871 ft 510 kts 301°
2026-05-07 16:43 2.20543 100.78327 29869 ft 510 kts 301°
2026-05-07 16:43 2.24176 100.72230 29871 ft 510 kts 301°
2026-05-07 16:44 2.27806 100.66138 29863 ft 510 kts 301°
2026-05-07 16:44 2.31437 100.60049 29871 ft 510 kts 301°
2026-05-07 16:45 2.35065 100.53957 29869 ft 510 kts 301°
2026-05-07 16:45 2.38693 100.47871 29868 ft 509 kts 301°
2026-05-07 16:46 2.42320 100.41793 29866 ft 509 kts 301°
2026-05-07 16:46 2.45927 100.35749 29886 ft 509 kts 301°
2026-05-07 16:47 2.49561 100.29666 29887 ft 509 kts 301°
2026-05-07 16:47 2.53190 100.23590 29892 ft 509 kts 301°
2026-05-07 16:48 2.56819 100.17511 29888 ft 509 kts 301°
2026-05-07 16:48 2.60446 100.11433 29889 ft 509 kts 301°
2026-05-07 16:49 2.64073 100.05348 29886 ft 509 kts 301°
2026-05-07 16:49 2.67699 99.99272 29894 ft 509 kts 301°
2026-05-07 16:50 2.71116 99.93129 29906 ft 510 kts 294°
2026-05-07 16:50 2.72379 99.89803 30048 ft 511 kts 289°
2026-05-07 16:50 2.73525 99.86436 30208 ft 512 kts 288°
2026-05-07 16:50 2.74618 99.83044 30349 ft 513 kts 288°
2026-05-07 16:51 2.75686 99.79639 30495 ft 513 kts 287°
2026-05-07 16:51 2.76746 99.76228 30634 ft 514 kts 287°
2026-05-07 16:51 2.77811 99.72802 30813 ft 515 kts 287°
2026-05-07 16:51 2.78877 99.69381 30964 ft 516 kts 288°
2026-05-07 16:52 2.79954 99.65949 31110 ft 517 kts 288°
2026-05-07 16:52 2.81032 99.62518 31253 ft 518 kts 288°
2026-05-07 16:52 2.82101 99.59128 31383 ft 519 kts 288°
2026-05-07 16:52 2.83190 99.55682 31510 ft 519 kts 288°
2026-05-07 16:53 2.84281 99.52231 31666 ft 520 kts 288°
2026-05-07 16:53 2.85370 99.48782 31806 ft 520 kts 288°
2026-05-07 16:53 2.86460 99.45329 31909 ft 521 kts 288°
2026-05-07 16:53 2.87553 99.41866 32026 ft 522 kts 288°
2026-05-07 16:54 2.88645 99.38402 32156 ft 523 kts 288°
2026-05-07 16:54 2.89739 99.34933 32332 ft 522 kts 288°
2026-05-07 16:54 2.90834 99.31463 32517 ft 521 kts 288°
2026-05-07 16:54 2.91923 99.28008 32685 ft 521 kts 288°
2026-05-07 16:55 2.93011 99.24552 32864 ft 520 kts 288°
2026-05-07 16:55 2.94093 99.21097 33030 ft 520 kts 288°
2026-05-07 16:55 2.95157 99.17688 33241 ft 519 kts 287°
2026-05-07 16:55 2.96233 99.14241 33465 ft 517 kts 287°
2026-05-07 16:56 2.97307 99.10804 33650 ft 517 kts 288°
2026-05-07 16:56 2.98379 99.07373 33879 ft 516 kts 287°
2026-05-07 16:56 3.00516 99.00538 34321 ft 514 kts 287°
2026-05-07 16:57 3.01583 98.97129 34501 ft 514 kts 287°
2026-05-07 16:57 3.02650 98.93715 34698 ft 513 kts 287°
2026-05-07 16:57 3.03715 98.90305 34917 ft 513 kts 288°
2026-05-07 16:57 3.04779 98.86903 35134 ft 512 kts 288°
2026-05-07 16:58 3.05842 98.83505 35325 ft 512 kts 288°
2026-05-07 16:58 3.06892 98.80143 35534 ft 512 kts 288°
2026-05-07 16:58 3.07955 98.76742 35764 ft 511 kts 288°
2026-05-07 16:58 3.09018 98.73344 36015 ft 511 kts 288°
2026-05-07 16:59 3.10077 98.69954 36247 ft 510 kts 288°
2026-05-07 16:59 3.11137 98.66560 36435 ft 510 kts 288°
2026-05-07 16:59 3.12196 98.63168 36621 ft 510 kts 288°
2026-05-07 16:59 3.13253 98.59783 36878 ft 508 kts 288°
2026-05-07 17:00 3.14302 98.56422 37253 ft 504 kts 288°
2026-05-07 17:00 3.15342 98.53089 37597 ft 501 kts 288°
2026-05-07 17:00 3.16380 98.49765 37837 ft 500 kts 288°
2026-05-07 17:00 3.17417 98.46446 38042 ft 499 kts 288°
2026-05-07 17:01 3.18453 98.43131 38244 ft 499 kts 288°
2026-05-07 17:01 3.19474 98.39861 38443 ft 499 kts 288°
2026-05-07 17:01 3.20510 98.36546 38603 ft 498 kts 288°
2026-05-07 17:01 3.21543 98.33236 38724 ft 499 kts 288°
2026-05-07 17:02 3.22577 98.29912 38895 ft 499 kts 288°
2026-05-07 17:02 3.23609 98.26596 39082 ft 499 kts 288°
2026-05-07 17:02 3.24641 98.23283 39241 ft 498 kts 288°
2026-05-07 17:02 3.25671 98.19975 39364 ft 499 kts 288°
2026-05-07 17:03 3.26705 98.16657 39503 ft 499 kts 288°
2026-05-07 17:03 3.27740 98.13346 39656 ft 499 kts 288°
2026-05-07 17:03 3.28774 98.10033 39808 ft 498 kts 288°
2026-05-07 17:03 3.29807 98.06719 39882 ft 499 kts 288°
2026-05-07 17:04 3.31871 98.00090 39886 ft 499 kts 288°
2026-05-07 17:04 3.33937 97.93458 39887 ft 499 kts 288°
2026-05-07 17:05 3.36007 97.86822 39888 ft 499 kts 288°
2026-05-07 17:05 3.38060 97.80227 39888 ft 499 kts 288°
2026-05-07 17:06 3.40128 97.73591 39888 ft 499 kts 288°
2026-05-07 17:06 3.42198 97.66944 39886 ft 499 kts 288°
2026-05-07 17:07 3.43763 97.60182 39887 ft 500 kts 276°
2026-05-07 17:07 3.43756 97.53249 39888 ft 501 kts 268°
2026-05-07 17:08 3.43324 97.46282 39887 ft 502 kts 266°
2026-05-07 17:08 3.42831 97.39306 39888 ft 502 kts 266°
2026-05-07 17:09 3.42372 97.32317 39888 ft 502 kts 267°
2026-05-07 17:09 3.41935 97.25350 39887 ft 501 kts 266°
2026-05-07 17:10 3.41501 97.18366 39890 ft 502 kts 266°
2026-05-07 17:10 3.41071 97.11438 39888 ft 502 kts 266°
2026-05-07 17:11 3.40632 97.04463 39887 ft 502 kts 266°
2026-05-07 17:11 3.40191 96.97473 39888 ft 502 kts 266°
2026-05-07 17:12 3.39751 96.90488 39888 ft 503 kts 266°
2026-05-07 17:12 3.39310 96.83505 39879 ft 502 kts 266°
2026-05-07 17:13 3.38871 96.76533 39879 ft 502 kts 266°
2026-05-07 17:13 3.38433 96.69593 39878 ft 502 kts 266°
2026-05-07 17:14 3.37991 96.62617 39879 ft 502 kts 266°
2026-05-07 17:14 3.37548 96.55626 39879 ft 502 kts 266°
2026-05-07 17:15 3.37109 96.48652 39879 ft 502 kts 266°
2026-05-07 17:15 3.36667 96.41677 39879 ft 502 kts 266°
2026-05-07 17:16 3.36223 96.34702 39879 ft 502 kts 266°
2026-05-07 17:16 3.35781 96.27753 39878 ft 502 kts 266°
2026-05-07 17:17 3.35336 96.20772 39878 ft 502 kts 266°
2026-05-07 17:17 3.34890 96.13790 39879 ft 502 kts 266°
2026-05-07 17:18 3.34445 96.06816 39879 ft 502 kts 266°
2026-05-07 17:18 3.34001 95.99841 39878 ft 502 kts 266°
2026-05-07 17:19 3.33632 95.94040 39879 ft 502 kts 266°
2026-05-07 17:19 3.33185 95.87058 39878 ft 502 kts 266°
2026-05-07 17:20 3.32739 95.80076 39879 ft 502 kts 266°
2026-05-07 17:20 3.32293 95.73097 39879 ft 502 kts 266°
2026-05-07 17:21 3.31842 95.66115 39879 ft 503 kts 266°
2026-05-07 17:21 3.31394 95.59174 39879 ft 503 kts 266°
2026-05-07 17:22 3.30943 95.52183 39878 ft 503 kts 266°
2026-05-07 17:22 3.30493 95.45186 39879 ft 503 kts 266°
2026-05-07 17:23 3.30044 95.38184 39878 ft 504 kts 266°
2026-05-07 17:23 3.29592 95.31190 39878 ft 503 kts 266°
2026-05-07 17:24 3.29139 95.24195 39879 ft 504 kts 266°
2026-05-07 17:24 3.28684 95.17198 39879 ft 504 kts 266°
2026-05-07 17:25 3.28233 95.10229 39879 ft 504 kts 266°
2026-05-07 17:25 3.27780 95.03222 39879 ft 505 kts 266°
2026-05-07 17:26 3.27323 94.96216 39879 ft 504 kts 266°
2026-05-07 17:26 3.26867 94.89190 39879 ft 505 kts 266°
2026-05-07 17:27 3.26406 94.82172 39879 ft 505 kts 266°
2026-05-07 17:27 3.25884 94.75152 39878 ft 505 kts 265°
2026-05-07 17:28 3.25346 94.68180 39878 ft 505 kts 265°
2026-05-07 17:28 3.24809 94.61172 39878 ft 505 kts 265°
2026-05-07 17:29 3.24280 94.54149 39878 ft 505 kts 265°
2026-05-07 17:29 3.23751 94.47136 39878 ft 505 kts 265°
2026-05-07 17:30 3.23220 94.40123 39879 ft 505 kts 265°
2026-05-07 17:30 3.22688 94.33113 39878 ft 505 kts 265°
2026-05-07 17:31 3.22158 94.26143 39878 ft 505 kts 265°
2026-05-07 17:31 3.21627 94.19132 39878 ft 505 kts 265°
2026-05-07 17:32 3.21101 94.12116 39878 ft 506 kts 265°
2026-05-07 17:32 3.20573 94.05096 39878 ft 506 kts 265°
2026-05-07 17:33 3.20041 93.98070 39878 ft 506 kts 265°
2026-05-07 17:33 3.19506 93.91042 39879 ft 507 kts 265°
2026-05-07 17:34 3.18966 93.84003 39879 ft 507 kts 265°
2026-05-07 17:34 3.18429 93.76965 39879 ft 507 kts 265°
2026-05-07 17:35 3.17899 93.69976 39879 ft 507 kts 265°
2026-05-07 17:35 3.17363 93.62932 39878 ft 507 kts 265°
2026-05-07 17:36 3.16825 93.55889 39879 ft 507 kts 265°
2026-05-07 17:36 3.16287 93.48853 39878 ft 507 kts 265°
2026-05-07 17:37 3.15745 93.41807 39879 ft 508 kts 265°
2026-05-07 17:37 3.15211 93.34801 39879 ft 508 kts 265°
2026-05-07 17:38 3.14672 93.27747 39879 ft 508 kts 265°
2026-05-07 17:38 3.14132 93.20697 39879 ft 508 kts 265°
2026-05-07 17:39 3.13594 93.13634 39878 ft 508 kts 265°
2026-05-07 17:39 3.13050 93.06568 39878 ft 508 kts 265°
2026-05-07 17:40 3.12507 92.99522 39878 ft 508 kts 265°
2026-05-07 17:40 3.11970 92.92518 39879 ft 508 kts 265°
2026-05-07 17:41 3.11430 92.85466 39879 ft 508 kts 265°
2026-05-07 17:41 3.10888 92.78408 39878 ft 508 kts 265°
2026-05-07 17:42 3.10341 92.71348 39879 ft 508 kts 265°
2026-05-07 17:42 3.09795 92.64292 39888 ft 509 kts 265°
2026-05-07 17:43 3.09248 92.57228 39887 ft 509 kts 265°
2026-05-07 17:43 3.08709 92.50206 39888 ft 509 kts 265°
2026-05-07 17:44 3.08163 92.43153 39888 ft 509 kts 265°
2026-05-07 17:44 3.07611 92.36088 39887 ft 509 kts 265°
2026-05-07 17:45 3.07062 92.29021 39888 ft 509 kts 265°
2026-05-07 17:45 3.06515 92.21963 39888 ft 509 kts 265°
2026-05-07 17:46 3.05970 92.14949 39888 ft 509 kts 265°
2026-05-07 17:46 3.05418 92.07846 39888 ft 509 kts 265°
2026-05-07 17:47 3.04932 92.00833 39885 ft 509 kts 269°
2026-05-07 17:47 3.05189 91.93762 39888 ft 509 kts 272°
2026-05-07 17:48 3.05632 91.86698 39887 ft 509 kts 273°
2026-05-07 17:48 3.06111 91.79629 39888 ft 509 kts 273°
2026-05-07 17:49 3.06579 91.72556 39888 ft 509 kts 273°
2026-05-07 17:49 3.07035 91.65481 39888 ft 509 kts 273°
2026-05-07 17:50 3.07485 91.58461 39888 ft 509 kts 273°
2026-05-07 17:50 3.07939 91.51385 39888 ft 509 kts 273°
2026-05-07 17:51 3.08388 91.44320 39888 ft 509 kts 273°
2026-05-07 17:51 3.08840 91.37260 39888 ft 509 kts 273°
2026-05-07 17:52 3.09294 91.30190 39888 ft 509 kts 273°
2026-05-07 17:52 3.09748 91.23108 39887 ft 509 kts 273°
2026-05-07 17:53 3.10199 91.16040 39888 ft 509 kts 273°
2026-05-07 17:53 3.10647 91.08971 39888 ft 509 kts 273°
2026-05-07 17:54 3.11097 91.01902 39888 ft 509 kts 273°
2026-05-07 17:54 3.11547 90.94883 39888 ft 509 kts 273°
2026-05-07 17:55 3.11994 90.87826 39887 ft 508 kts 273°
2026-05-07 17:55 3.12444 90.80770 39888 ft 508 kts 273°
2026-05-07 17:56 3.12892 90.73711 39888 ft 508 kts 273°
2026-05-07 17:56 3.13338 90.66657 39888 ft 508 kts 273°
2026-05-07 17:57 3.13706 90.60794 39887 ft 508 kts 273°
2026-05-07 17:57 3.14223 90.52540 39888 ft 508 kts 273°
2026-05-07 17:58 3.14665 90.45536 39888 ft 508 kts 273°
2026-05-07 17:58 3.15112 90.38478 39879 ft 508 kts 273°
2026-05-07 17:59 3.15555 90.31421 39878 ft 508 kts 273°
2026-05-07 17:59 3.15996 90.24362 39880 ft 508 kts 273°
2026-05-07 18:00 3.16436 90.17310 39878 ft 508 kts 273°
2026-05-07 18:00 3.16880 90.10246 39879 ft 508 kts 273°
2026-05-07 18:01 3.17326 90.03173 39878 ft 508 kts 273°
2026-05-07 18:01 3.17766 89.96145 39879 ft 509 kts 273°
2026-05-07 18:02 3.18427 89.85540 39879 ft 509 kts 273°
2026-05-07 18:03 3.18870 89.78471 39878 ft 509 kts 273°
2026-05-07 18:03 3.19313 89.71400 39879 ft 509 kts 273°
2026-05-07 18:04 3.19754 89.64325 39878 ft 509 kts 273°
2026-05-07 18:04 3.20191 89.57263 39878 ft 509 kts 273°
2026-05-07 18:05 3.20625 89.50233 39879 ft 509 kts 273°
2026-05-07 18:05 3.21061 89.43158 39879 ft 509 kts 273°
2026-05-07 18:06 3.21502 89.36089 39879 ft 509 kts 273°
2026-05-07 18:06 3.21868 89.30221 39879 ft 509 kts 273°
2026-05-07 18:07 3.22304 89.23138 39878 ft 509 kts 273°
2026-05-07 18:07 3.22738 89.16070 39878 ft 509 kts 273°
2026-05-07 18:08 3.23171 89.09037 39879 ft 509 kts 273°
2026-05-07 18:08 3.23604 89.01964 39878 ft 510 kts 272°
2026-05-07 18:09 3.24038 88.94884 39878 ft 510 kts 273°
2026-05-07 18:09 3.24476 88.87804 39878 ft 509 kts 273°
2026-05-07 18:10 3.24914 88.80711 39879 ft 510 kts 273°
2026-05-07 18:10 3.25352 88.73630 39878 ft 510 kts 273°
2026-05-07 18:11 3.25788 88.66548 39879 ft 510 kts 273°
2026-05-07 18:11 3.26216 88.59514 39879 ft 510 kts 273°
2026-05-07 18:12 3.26644 88.52431 39879 ft 509 kts 273°
2026-05-07 18:12 3.27078 88.45345 39879 ft 510 kts 272°
2026-05-07 18:13 3.27514 88.38260 39879 ft 510 kts 272°
2026-05-07 18:13 3.27941 88.31226 39861 ft 509 kts 273°
2026-05-07 18:14 3.28368 88.24160 39861 ft 508 kts 273°
2026-05-07 18:14 3.28797 88.17096 39859 ft 508 kts 273°
2026-05-07 18:15 3.29224 88.10039 39860 ft 508 kts 273°
2026-05-07 18:15 3.29654 88.02971 39860 ft 508 kts 273°
2026-05-07 18:16 3.30083 87.95909 39861 ft 508 kts 273°
2026-05-07 18:16 3.30508 87.88888 39860 ft 509 kts 273°
2026-05-07 18:17 3.30934 87.81811 39861 ft 509 kts 273°
2026-05-07 18:17 3.31363 87.74733 39861 ft 509 kts 273°
2026-05-07 18:18 3.31788 87.67660 39858 ft 509 kts 273°
2026-05-07 18:18 3.32210 87.60594 39859 ft 509 kts 273°
2026-05-07 18:19 3.32633 87.53519 39861 ft 509 kts 273°
2026-05-07 18:19 3.33057 87.46444 39859 ft 509 kts 273°
2026-05-07 18:20 3.33482 87.39369 39860 ft 509 kts 273°
2026-05-07 18:20 3.33902 87.32347 39860 ft 509 kts 273°
2026-05-07 18:21 3.34322 87.25260 39860 ft 509 kts 273°
2026-05-07 18:21 3.34743 87.18185 39859 ft 509 kts 273°
2026-05-07 18:22 3.35167 87.11099 39862 ft 510 kts 273°
2026-05-07 18:22 3.35590 87.04009 39859 ft 510 kts 273°
2026-05-07 18:23 3.36008 86.96971 39859 ft 510 kts 273°
2026-05-07 18:23 3.36425 86.89882 39859 ft 509 kts 273°
2026-05-07 18:24 3.36844 86.82801 39860 ft 510 kts 273°
2026-05-07 18:24 3.37269 86.75712 39862 ft 509 kts 273°
2026-05-07 18:25 3.37686 86.68682 39860 ft 508 kts 273°
2026-05-07 18:25 3.38098 86.61620 39859 ft 508 kts 274°
2026-05-07 18:26 3.38516 86.54557 39860 ft 508 kts 273°
2026-05-07 18:26 3.38933 86.47492 39860 ft 508 kts 273°
2026-05-07 18:27 3.39349 86.40427 39860 ft 508 kts 274°
2026-05-07 18:27 3.39761 86.33403 39860 ft 508 kts 274°
2026-05-07 18:28 3.40174 86.26337 39859 ft 508 kts 273°
2026-05-07 18:28 3.40590 86.19265 39859 ft 507 kts 273°
2026-05-07 18:29 3.41003 86.12215 39860 ft 507 kts 274°
2026-05-07 18:29 3.41415 86.05168 39862 ft 507 kts 273°
2026-05-07 18:30 3.41822 85.98159 39860 ft 507 kts 274°
2026-05-07 18:30 3.42236 85.91107 39861 ft 508 kts 273°
2026-05-07 18:31 3.42647 85.84035 39860 ft 508 kts 273°
2026-05-07 18:31 3.43056 85.76974 39862 ft 508 kts 274°
2026-05-07 18:32 3.43466 85.69907 39859 ft 508 kts 273°
2026-05-07 18:32 3.43874 85.62842 39861 ft 508 kts 273°
2026-05-07 18:33 3.44280 85.55828 39858 ft 508 kts 273°
2026-05-07 18:33 3.44698 85.48749 39861 ft 508 kts 273°
2026-05-07 18:34 3.45122 85.41676 39860 ft 509 kts 273°
2026-05-07 18:34 3.45541 85.34601 39859 ft 509 kts 273°
2026-05-07 18:35 3.45957 85.27507 39859 ft 509 kts 273°
2026-05-07 18:35 3.46369 85.20424 39860 ft 509 kts 273°
2026-05-07 18:36 3.46780 85.13387 39859 ft 510 kts 273°
2026-05-07 18:36 3.47199 85.06301 39859 ft 510 kts 273°
2026-05-07 18:37 3.47621 84.99207 39859 ft 511 kts 273°
2026-05-07 18:37 3.48038 84.92146 39860 ft 510 kts 273°
2026-05-07 18:38 3.48461 84.85046 39859 ft 511 kts 273°
2026-05-07 18:38 3.48882 84.77950 39860 ft 511 kts 273°
2026-05-07 18:39 3.49300 84.70830 39861 ft 512 kts 273°
2026-05-07 18:39 3.49715 84.63718 39859 ft 512 kts 273°
2026-05-07 18:40 3.50129 84.56596 39859 ft 512 kts 273°
2026-05-07 18:40 3.50541 84.49481 39861 ft 512 kts 273°
2026-05-07 18:41 3.50951 84.42408 39859 ft 512 kts 273°
2026-05-07 18:41 3.51363 84.35305 39860 ft 512 kts 273°
2026-05-07 18:42 3.51776 84.28167 39860 ft 512 kts 273°
2026-05-07 18:42 3.52189 84.21055 39860 ft 512 kts 273°
2026-05-07 18:43 3.52600 84.13937 39861 ft 512 kts 273°
2026-05-07 18:43 3.53010 84.06824 39860 ft 512 kts 273°
2026-05-07 18:44 3.53414 83.99716 39860 ft 512 kts 272°
2026-05-07 18:44 3.53798 83.92607 39860 ft 511 kts 273°
2026-05-07 18:45 3.54185 83.85494 39859 ft 512 kts 272°
2026-05-07 18:45 3.54569 83.78427 39860 ft 512 kts 272°
2026-05-07 18:46 3.54957 83.71313 39860 ft 512 kts 272°
2026-05-07 18:46 3.55343 83.64194 39860 ft 512 kts 272°
2026-05-07 18:47 3.55730 83.57075 39860 ft 512 kts 272°
2026-05-07 18:47 3.56120 83.49953 39859 ft 513 kts 272°
2026-05-07 18:48 3.56511 83.42823 39861 ft 513 kts 272°
2026-05-07 18:48 3.56895 83.35704 39861 ft 513 kts 272°
2026-05-07 18:49 3.57281 83.28613 39861 ft 513 kts 272°
2026-05-07 18:49 3.57667 83.21474 39860 ft 513 kts 272°
2026-05-07 18:50 3.58050 83.14346 39859 ft 513 kts 272°
2026-05-07 18:50 3.58434 83.07212 39859 ft 513 kts 272°
2026-05-07 18:51 3.58821 83.00063 39862 ft 514 kts 272°
2026-05-07 18:51 3.59212 82.92969 39859 ft 514 kts 272°
2026-05-07 18:52 3.59603 82.85821 39860 ft 514 kts 272°
2026-05-07 18:52 3.59992 82.78676 39859 ft 514 kts 273°
2026-05-07 18:53 3.60383 82.71535 39861 ft 514 kts 272°
2026-05-07 18:53 3.60709 82.65594 39861 ft 514 kts 273°
2026-05-07 18:54 3.61099 82.58439 39859 ft 514 kts 273°
2026-05-07 18:54 3.61485 82.51284 39861 ft 515 kts 273°
2026-05-07 18:55 3.61872 82.44126 39860 ft 515 kts 273°
2026-05-07 18:55 3.62258 82.37011 39859 ft 515 kts 273°
2026-05-07 18:56 3.62645 82.29850 39860 ft 516 kts 273°
2026-05-07 18:56 3.63030 82.22670 39859 ft 516 kts 272°
2026-05-07 18:57 3.63416 82.15497 39859 ft 516 kts 272°
2026-05-07 18:57 3.63806 82.08317 39862 ft 516 kts 273°
2026-05-07 18:58 3.64191 82.01151 39859 ft 516 kts 273°
2026-05-07 18:58 3.64577 81.93973 39859 ft 515 kts 273°
2026-05-07 18:59 3.64958 81.86857 39861 ft 515 kts 272°
2026-05-07 18:59 3.65344 81.79686 39859 ft 516 kts 273°
2026-05-07 19:00 3.65728 81.72516 39859 ft 516 kts 273°
2026-05-07 19:00 3.66111 81.65341 39860 ft 516 kts 273°
2026-05-07 19:01 3.66493 81.58172 39859 ft 515 kts 273°
2026-05-07 19:01 3.66869 81.51004 39862 ft 515 kts 272°
2026-05-07 19:02 3.67248 81.43876 39860 ft 515 kts 272°
2026-05-07 19:02 3.67629 81.36718 39859 ft 514 kts 272°
2026-05-07 19:03 3.68010 81.29564 39857 ft 514 kts 273°
2026-05-07 19:03 3.68386 81.22425 39859 ft 513 kts 272°
2026-05-07 19:04 3.68764 81.15290 39859 ft 513 kts 272°
2026-05-07 19:04 3.69141 81.08146 39853 ft 513 kts 272°
2026-05-07 19:05 3.69514 81.01017 39852 ft 513 kts 272°
2026-05-07 19:05 3.69872 80.93920 39850 ft 513 kts 272°
2026-05-07 19:06 3.70241 80.86780 39850 ft 513 kts 272°
2026-05-07 19:06 3.70801 80.76086 39850 ft 512 kts 272°
2026-05-07 19:07 3.71171 80.69013 39850 ft 512 kts 272°
2026-05-07 19:07 3.71542 80.61899 39850 ft 512 kts 272°
2026-05-07 19:08 3.71912 80.54781 39850 ft 511 kts 272°
2026-05-07 19:08 3.72282 80.47669 39852 ft 511 kts 272°
2026-05-07 19:09 3.72651 80.40566 39850 ft 511 kts 272°
2026-05-07 19:09 3.73015 80.33454 39850 ft 511 kts 272°
2026-05-07 19:10 3.73386 80.26334 39850 ft 511 kts 272°
2026-05-07 19:10 3.73757 80.19280 39850 ft 511 kts 272°
2026-05-07 19:11 3.74123 80.12177 39850 ft 511 kts 272°
2026-05-07 19:11 3.74490 80.05070 39850 ft 511 kts 272°
2026-05-07 19:12 3.74852 79.97976 39850 ft 510 kts 272°
2026-05-07 19:12 3.75215 79.90860 39850 ft 511 kts 272°
2026-05-07 19:13 3.75581 79.83784 39854 ft 511 kts 272°
2026-05-07 19:13 3.75954 79.76673 39852 ft 511 kts 272°
2026-05-07 19:14 3.76330 79.69567 39853 ft 511 kts 272°
2026-05-07 19:14 3.76698 79.62453 39850 ft 511 kts 272°
2026-05-07 19:15 3.77061 79.55347 39850 ft 511 kts 272°
2026-05-07 19:15 3.77422 79.48237 39850 ft 511 kts 272°
2026-05-07 19:16 3.77784 79.41174 39852 ft 511 kts 272°
2026-05-07 19:16 3.78145 79.34068 39850 ft 511 kts 272°
2026-05-07 19:17 3.78503 79.26952 39854 ft 511 kts 273°
2026-05-07 19:17 3.78859 79.19845 39850 ft 511 kts 272°
2026-05-07 19:18 3.79207 79.12733 39850 ft 512 kts 273°
2026-05-07 19:18 3.79557 79.05617 39850 ft 511 kts 272°
2026-05-07 19:19 3.79911 78.98506 39850 ft 511 kts 272°
2026-05-07 19:19 3.80270 78.91378 39850 ft 512 kts 272°
2026-05-07 19:20 3.80625 78.84267 39850 ft 511 kts 273°
2026-05-07 19:20 3.80979 78.77200 39855 ft 511 kts 273°
2026-05-07 19:21 3.81334 78.70090 39850 ft 511 kts 273°
2026-05-07 19:21 3.81691 78.62976 39851 ft 511 kts 273°
2026-05-07 19:22 3.82052 78.55856 39850 ft 512 kts 273°
2026-05-07 19:22 3.82406 78.48735 39850 ft 511 kts 273°
2026-05-07 19:23 3.82759 78.41620 39844 ft 512 kts 273°
2026-05-07 19:23 3.83107 78.34542 39827 ft 512 kts 273°
2026-05-07 19:24 3.83460 78.27411 39839 ft 513 kts 273°
2026-05-07 19:24 3.83814 78.20284 39841 ft 512 kts 273°
2026-05-07 19:25 3.84165 78.13149 39838 ft 513 kts 273°
2026-05-07 19:25 3.84516 78.06010 39845 ft 513 kts 273°
2026-05-07 19:26 3.84874 77.98885 39843 ft 513 kts 273°
2026-05-07 19:26 3.85420 77.91762 39844 ft 512 kts 276°
2026-05-07 19:27 3.86086 77.84655 39838 ft 512 kts 276°
2026-05-07 19:27 3.86725 77.77581 39838 ft 512 kts 275°
2026-05-07 19:28 3.87330 77.70470 39847 ft 512 kts 275°
2026-05-07 19:28 3.87919 77.63359 39838 ft 512 kts 275°
2026-05-07 19:29 3.88513 77.56241 39839 ft 512 kts 275°
2026-05-07 19:29 3.89106 77.49135 39838 ft 512 kts 275°
2026-05-07 19:30 3.89698 77.42025 39838 ft 512 kts 275°
2026-05-07 19:30 3.90296 77.34909 39839 ft 512 kts 275°
2026-05-07 19:31 3.90877 77.27828 39838 ft 512 kts 275°
2026-05-07 19:31 3.91432 77.20710 39847 ft 512 kts 275°
2026-05-07 19:32 3.91985 77.13602 39853 ft 513 kts 275°
2026-05-07 19:32 3.92541 77.06486 39854 ft 512 kts 275°
2026-05-07 19:33 3.93096 76.99367 39850 ft 512 kts 275°
2026-05-07 19:33 3.93644 76.92306 39850 ft 512 kts 275°
2026-05-07 19:34 3.94196 76.85190 39850 ft 512 kts 275°
2026-05-07 19:34 3.94754 76.78077 39851 ft 512 kts 275°
2026-05-07 19:35 3.95306 76.70958 39850 ft 513 kts 275°
2026-05-07 19:35 3.95859 76.63832 39850 ft 513 kts 275°
2026-05-07 19:36 3.96413 76.56705 39849 ft 513 kts 275°
2026-05-07 19:36 3.96965 76.49588 39850 ft 513 kts 275°
2026-05-07 19:37 3.97514 76.42462 39850 ft 513 kts 275°
2026-05-07 19:37 3.98063 76.35335 39850 ft 513 kts 275°
2026-05-07 19:38 3.98593 76.28214 39851 ft 513 kts 273°
2026-05-07 19:38 3.98589 76.21069 39850 ft 513 kts 269°
2026-05-07 19:39 3.98472 76.13912 39851 ft 513 kts 269°
2026-05-07 19:39 3.98382 76.07967 39851 ft 513 kts 269°
2026-05-07 19:40 3.98256 75.99613 39850 ft 513 kts 269°
2026-05-07 19:40 3.98151 75.92463 39850 ft 513 kts 269°
2026-05-07 19:41 3.98062 75.86527 39851 ft 513 kts 269°
2026-05-07 19:41 3.97939 75.78213 39851 ft 513 kts 269°
2026-05-07 19:42 3.97850 75.72231 39853 ft 513 kts 269°
2026-05-07 19:42 3.97740 75.65069 39850 ft 513 kts 269°
2026-05-07 19:43 3.97635 75.57958 39850 ft 513 kts 269°
2026-05-07 19:43 3.97527 75.50799 39850 ft 513 kts 269°
2026-05-07 19:44 3.97419 75.43652 39850 ft 513 kts 269°
2026-05-07 19:44 3.97311 75.36501 39850 ft 513 kts 269°
2026-05-07 19:45 3.97202 75.29348 39850 ft 513 kts 269°
2026-05-07 19:45 3.97091 75.22285 39269 ft 508 kts 269°
2026-05-07 19:46 3.97037 75.18739 38428 ft 511 kts 269°
2026-05-07 19:46 3.96981 75.15162 37590 ft 514 kts 269°
2026-05-07 19:46 3.96924 75.11573 36775 ft 516 kts 269°
2026-05-07 19:46 3.96869 75.07993 35750 ft 511 kts 269°
2026-05-07 19:47 3.96814 75.04435 34355 ft 511 kts 269°
2026-05-07 19:47 3.96759 75.00871 32793 ft 513 kts 269°
2026-05-07 19:47 3.96703 74.97283 31145 ft 517 kts 269°
2026-05-07 19:47 3.96648 74.93677 29503 ft 518 kts 269°
2026-05-07 19:48 3.96591 74.90097 27856 ft 517 kts 269°
2026-05-07 19:48 3.96535 74.86532 26848 ft 503 kts 269°
2026-05-07 19:48 3.96481 74.83083 26241 ft 493 kts 269°
2026-05-07 19:48 3.96426 74.79668 25589 ft 488 kts 269°
2026-05-07 19:49 3.96371 74.76284 24932 ft 483 kts 269°
2026-05-07 19:49 3.96317 74.72978 24284 ft 478 kts 269°
2026-05-07 19:49 3.96264 74.69660 23652 ft 472 kts 270°
2026-05-07 19:49 3.96211 74.66396 23013 ft 466 kts 269°
2026-05-07 19:50 3.96157 74.63168 22382 ft 460 kts 269°
2026-05-07 19:50 3.96105 74.59980 21752 ft 454 kts 270°
2026-05-07 19:50 3.96055 74.56830 21127 ft 448 kts 270°
2026-05-07 19:50 3.96006 74.53727 20511 ft 442 kts 270°
2026-05-07 19:51 3.95957 74.50706 19908 ft 437 kts 270°
2026-05-07 19:51 3.95907 74.47677 19292 ft 432 kts 270°
2026-05-07 19:51 3.95857 74.44684 18667 ft 428 kts 270°
2026-05-07 19:51 3.95807 74.41716 18042 ft 423 kts 270°
2026-05-07 19:52 3.95759 74.38783 17425 ft 419 kts 270°
2026-05-07 19:52 3.95711 74.35887 16793 ft 415 kts 270°
2026-05-07 19:52 3.95663 74.33007 16153 ft 411 kts 270°
2026-05-07 19:52 3.95614 74.30147 15529 ft 408 kts 270°
2026-05-07 19:53 3.95568 74.27318 14897 ft 405 kts 270°
2026-05-07 19:53 3.95522 74.24505 14274 ft 401 kts 270°
2026-05-07 19:53 3.95477 74.21718 13627 ft 398 kts 270°
2026-05-07 19:53 3.95430 74.18991 13000 ft 395 kts 269°
2026-05-07 19:54 3.95383 74.16257 12456 ft 389 kts 269°
2026-05-07 19:54 3.95338 74.13559 11870 ft 385 kts 269°
2026-05-07 19:54 3.95293 74.10895 11320 ft 380 kts 270°
2026-05-07 19:54 3.95249 74.08314 11172 ft 361 kts 269°
2026-05-07 19:55 3.95207 74.05858 11040 ft 344 kts 270°
2026-05-07 19:55 3.95167 74.03516 10905 ft 328 kts 269°
2026-05-07 19:55 3.95127 74.01278 10776 ft 314 kts 269°
2026-05-07 19:55 3.95090 73.99139 10641 ft 300 kts 269°
2026-05-07 19:56 3.95055 73.97118 10510 ft 288 kts 270°
2026-05-07 19:56 3.95021 73.95142 10354 ft 279 kts 270°
2026-05-07 19:56 3.94988 73.93210 10076 ft 276 kts 270°
2026-05-07 19:56 3.94957 73.91292 9774 ft 279 kts 270°
2026-05-07 19:57 3.94924 73.89309 9595 ft 288 kts 269°
2026-05-07 19:57 3.94890 73.87293 9393 ft 289 kts 270°
2026-05-07 19:57 3.94883 73.85281 9009 ft 287 kts 271°
2026-05-07 19:57 3.94888 73.83289 8697 ft 285 kts 271°
2026-05-07 19:58 3.94892 73.81310 8413 ft 284 kts 270°
2026-05-07 19:58 3.94895 73.79337 8135 ft 281 kts 270°
2026-05-07 19:58 3.94892 73.77386 7855 ft 280 kts 271°
2026-05-07 19:58 3.94897 73.75441 7542 ft 278 kts 271°
2026-05-07 19:59 3.94903 73.73509 7234 ft 277 kts 271°
2026-05-07 19:59 3.94906 73.71613 6929 ft 275 kts 271°
2026-05-07 19:59 3.94909 73.69703 6605 ft 273 kts 271°
2026-05-07 19:59 3.94911 73.67807 6274 ft 271 kts 271°
2026-05-07 20:00 3.94911 73.65924 5947 ft 270 kts 271°
2026-05-07 20:00 3.94917 73.64052 5738 ft 269 kts 271°
2026-05-07 20:00 3.94919 73.62188 5403 ft 266 kts 271°
2026-05-07 20:00 3.94911 73.60333 5141 ft 266 kts 270°
2026-05-07 20:01 3.94904 73.58478 4873 ft 265 kts 271°
2026-05-07 20:01 3.94897 73.56644 4660 ft 259 kts 271°
2026-05-07 20:01 3.95096 73.54905 4465 ft 246 kts 290°
2026-05-07 20:01 3.96083 73.53576 4240 ft 237 kts 323°
2026-05-07 20:02 3.97559 73.52934 4076 ft 230 kts 347°
2026-05-07 20:02 3.99131 73.52842 3841 ft 225 kts 358°
2026-05-07 20:02 4.00689 73.52905 3531 ft 223 kts
2026-05-07 20:02 4.02240 73.53041 3199 ft 224 kts
2026-05-07 20:03 4.03788 73.53145 2879 ft 222 kts 358°
2026-05-07 20:03 4.05321 73.53097 2577 ft 219 kts 356°
2026-05-07 20:03 4.06832 73.53095 2283 ft 214 kts 358°
2026-05-07 20:03 4.08270 73.53107 2029 ft 198 kts 358°
2026-05-07 20:04 4.09581 73.53109 1782 ft 180 kts 358°
2026-05-07 20:04 4.10786 73.53107 1530 ft 167 kts 358°
2026-05-07 20:04 4.11899 73.53107 1304 ft 157 kts 358°
2026-05-07 20:04 4.12947 73.53106 1053 ft 148 kts 358°
2026-05-07 20:05 4.13955 73.53102 842 ft 138 kts 358°
2026-05-07 20:05 4.14902 73.53101 691 ft 136 kts 358°
2026-05-07 20:05 4.15839 73.53083 529 ft 136 kts 358°
2026-05-07 20:05 4.16788 73.53089 404 ft 137 kts 360°
2026-05-07 20:06 4.17742 73.53096 237 ft 137 kts 359°
2026-05-07 20:06 4.18694 73.53100 48 ft 136 kts 359°
2026-05-07 20:06 4.19590 73.53100 22 ft 111 kts 360°
2026-05-07 20:06 4.20118 73.53101 19 ft 58 kts
2026-05-07 20:07 4.20346 73.53095 20 ft 13 kts 329°
2026-05-07 20:07 4.20368 73.53011 19 ft 13 kts 271°
2026-05-07 20:07 4.20360 73.52915 20 ft 12 kts 236°
2026-05-07 20:07 4.20274 73.52897 19 ft 18 kts 180°
2026-05-07 20:08 4.20114 73.52900 19 ft 26 kts 179°
2026-05-07 20:08 4.19928 73.52904 19 ft 28 kts 179°
2026-05-07 20:08 4.19730 73.52908 19 ft 29 kts 178°
2026-05-07 20:08 4.19527 73.52911 19 ft 26 kts 180°
2026-05-07 20:09 4.19337 73.52913 20 ft 28 kts 179°
2026-05-07 20:09 4.19139 73.52917 22 ft 28 kts 179°
2026-05-07 20:09 4.18941 73.52920 19 ft 28 kts 179°
2026-05-07 20:10 4.18604 73.52923 21 ft 22 kts 179°
2026-05-07 20:10 4.18493 73.52909 19 ft 11 kts 229°
2026-05-07 20:10 4.18428 73.52861 21 ft 13 kts 193°
2026-05-07 20:10 4.18379 73.52860 19 ft 0 kts 180°
2026-05-07 20:11 4.18377 73.52860 19 ft 3 kts 180°
2026-05-07 20:11 4.18321 73.52844 20 ft 9 kts 231°
2026-05-07 20:11 4.18314 73.52802 21 ft 5 kts 268°
2026-05-07 20:11 4.18314 73.52791 19 ft 0 kts 268°